Tracking 35331 objects as of 14-Sep-2026
HD Live streaming from Space Station
objects crossing your sky now

SL-3 DEB


SL-3 DEB is no longer on orbit


NORAD ID: 3293
Int'l Code: 1968-049C
Launch date: June 12, 1968
Source: Commonwealth of Independent States (former USSR) (CIS)
Launch site: PLESETSK MISSILE AND SPACE COMPLEX (PKMTR)
Decay date: 1968-06-21

Note: This is SATELLITE DEBRIS
Your satellite tracking list
Your tracking list is empty




NASA's NSSDC Master Catalog

Two Line Element Set (TLE):
1 03293U 68049  C 68169.82280975  .02660675 +00000-0 +00000-0 0  9997
2 03293 048.4319 146.0954 0064707 146.6661 213.8309 15.96704887000945
Source of the keplerian elements: AFSPC